Погода Ермаковское

Погода Ермаковское : погода сейчас, прогноз погоды и архив. Всё, что Вы хотите узнать о погоде Ермаковское!

Хотите узнать прогноз погоды Ермаковское? Тогда Вам сюда: Погода Ермаковское

Поиск расширенной информации на нашем сайте:

Другие новости

Новости СМИ2

Главная страница сайта

Новости сайта

02.10.2013

Напоминаем, что на нашем новом сайте вы можете получить высокодетализированные прогнозы погоды по пунктам России, СНГ и мира (включающие важные для авиации метеовеличины, такие как направление и скорость ветра, видимость, явления погоды, количество и форма облачности, нижняя и верхняя граница облачности), а также ознакомиться с разнообразными материалами по авиационной метеорологии и подборкой полезных ссылок на эту тему.

Сайт Метеоцентр.Азия посвящён разработке технологий оптимизации авиаметеорологического обслуживания, включая проектирование и перспективное создание нескольких автоматизированных авиаметеорологических систем:
- система выпуска высокодетальных прогностических карт явлений погоды для нижнего воздушного пространства по России и ближнему зарубежью;
- система верификации прогнозов TAF (выпускаемых синоптиками официальных АМСГ РФ и ближнего зарубежья) и AUTOTAF (выпускаемых сайтом Метеоцентр.Азия) - выявление ошибок, онлайн-сопоставление с фактической погодой METAR, автоматическое внесение коррективов в прогнозы при резком отклонении фактической погоды от прогноза, подсчёт оправдываемости прогнозов по элементам и в целом;
- система обработки, анализа и отображения авиаметеорологической информации для применения провайдерами метеорологической информации.

Рекомендуем: минск-вильнюс расписание автобусов

Погода Ермаковское - сегодня

Время (UTC), дата Ветер
(°,м/с) 
Видим.   Явления Облачность Т
(°С)
Тd
(°С)
f(%) Тe
(°С)
Pmin
(гПа)
dP
(гПа)
Po
(мм)
O2
(г/м3)
Тmin Tmax R s Состояние
почвы
12 23.04.17 260 (З) 2{15}  10 км  слаб. дождь  10/10 1000 м 
[Sc]
+9.8 +6.8 82 +10  1020.1  2.3  738  286    +17  0.0     
15 23.04.17 150 (ЮВ) н/о  в посл. час дождь  10/10 1000 м 
[Sc]
+8.4 +7.6 95 +9  1021.6  1.3  739  288           
18 23.04.17 тихо ()   н/о  туман{дождь}  9/9 1000 м 
[Sc]
+5.8 +5.3 97 +6  1022.6  0.6  740  291           
21 23.04.17 тихо ()   н/о  туман  4/4 1000 м 
[Sc]
+2 +2 100 +2  1023.1  740  295           
00 24.04.17 тихо ()   0200 м  туман  ясно 
+1 +0.7 98 +1  1023.5  0.2  740  297  +0.8       
03 24.04.17 030 (СВ) 20000 м  в посл. час туман  3/0 верхняя 
[Ci fib]
+9.4 +5.2 75 +10  1021.5  -0.9  739  287           
06 24.04.17 040 (СВ) 20000 м  {туман}  3/0 верхняя 
[Ci fib]
+17.4 +0.2 31 +18  1018.7  -1.7  738  279           
09 24.04.17 170 (Ю) 20000 м    3/3 1000 м верхняя 
[Sc|Ci fib]
+20.6 +1.1 27 +21  1016.5  -1.8  736  276           
12 24.04.17 320 (СЗ) 20000 м    3/3 1000 м 
[Sc]
+19.9 -1.1 24 +21  1016.4  -0.1  736  277    +22.2       
15 24.04.17 260 (З) н/о    6/6 1000 м 
[Sc]
+13.3 +2.1 47 +13  1019.5  2.2  738  283           
18 24.04.17 230 (ЮЗ) н/о    3/3 1000 м 
[Sc]
+8.6 +3.8 72 +10  1020.9  0.8  739  288           
21 24.04.17 тихо ()   н/о  слаб. дождь  10/10 1000 м 
[Sc]
+6.7 +3.9 82 +7  1021.6  0.4  739  290           
00 25.04.17 270 (З) 4000 м  дождь  10/10 1000 м 
[Sc]
+7.8 +6.9 94 +8  1024  2.4  741  289  +6.2  -0.8  0.6     
03 25.04.17 240 (ЮЗ) 10 км  {дождь}  10/10 600 м кучево-дожд. 
[Cb cap]
+7.6 +6.3 91 +8  1027.3  3.2  743  290           
06 25.04.17 250 (З) 10 км  {дождь}  10/10 600 м кучево-дожд. 
[Cb cap]
+9 +5.7 80 +9  1028.5  1.4  744  289           
09 25.04.17 270 (З) 20000 м    9/9 1000 м 
[Sc]
+12 +5.6 65 +12  1028.8  0.7  745  287           
12 25.04.17 220 (ЮЗ) 20000 м    8/3 1000 м верхняя 
[Sc|Cc]
+12.6 +5.3 61 +13  1029  0.3  745  286    +14.5     
15 25.04.17 тихо ()   н/о    ясно 
+8 +5.6 85 +8  1030.7  1.3  746  291           
18 25.04.17 тихо ()   н/о    ясно 
+2.4 +1.6 94 +2  1032.4  0.5  746  298           
21 25.04.17 020 (С) н/о  туман  ясно 
+0.6 +0.3 98 +1  1032.1  -0.2  746  300           
00 26.04.17 тихо ()   0200 м  туман  ясно 
+0.2 -0.4 96 1033.2  0.7  747  301  +0         
03 26.04.17 тихо ()   20000 м  в посл. час туман  ясно 
+9.8 +5.4 74 +10  1031.2  -0.6  746  289           
06 26.04.17 040 (СВ) 20000 м  {туман}  ясно 
+18 +5.2 43 +19  1027.5  -2.6  744  281           
09 26.04.17 040 (СВ) 20000 м    ясно 
+23 +2.4 26 +23  1024  -2.8  742  275           
12 26.04.17 060 (СВ) 20000 м    ясно 
+23.8 +1.9 24 +24  1022.1  -1.8  741  274    +23.8       
Время (UTC), дата Ветер
(°,м/с) 
Видим.   Явления Облачность Т
(°С)
Тd
(°С)
f(%) Тe
(°С)
Pmin
(гПа)
dP
(гПа)
Po
(мм)
O2
(г/м3)
Тmin Tmax R s Состояние
почвы

Для получения пояснительной информации подведите курсор к названию столбца.

ПОГОДА Ермаковское - архив

Всё, что Вы хотите узнать о погоде Ермаковское - удобно и подробно!

Выберите нужную дату (начиная с 1 января 2015* года) и нажмите кнопку "Найти".
Будут отображены архивные сводки погоды по пункту Ермаковское, начиная с указанной даты.


Отображать данные в формате CSV (для использования в таблицах Excel)


Внимание! Наш архив погоды предназначен исключительно для личного некоммерческого использования в познавательных целях. Если Вам необходимы официальные справки о состоянии погоды (для производственных, юридических, коммерческих и т.п. целей), обращайтесь в органы Росгидромета.

*Примечание: данная дата относится к архиву по метеостанциям СССР (Россия, СНГ, Балтия).
Архив по метеостанциям Зарубежной Европы и Азии (кроме Китая) хранится 10 дней, по другим регионам земного шара (Китай, Африка, Америка, Австралия, Океания) - 1 день.

Ермаковское - район местоположения метеостанции


Название, широта, долгота, высота метеостанции:
Ермаковское 53.3°ш. 92.4°д. 298 м над ур. моря [Российская Федерация]

Дополнительная информация

В oтличие oт бoльшинства пoгoдных сайтoв мы публикуем пoдрoбную метеoинфoрмацию в детальнoм прoфессиoнальнoм фoрмате.

Характеристики температуры и влажнoсти вoздуха измеряются на высoте 2 м в тени вдали oт зданий и деревьев.
Скoрoсть ветра измеряется на высoте 10 м (на урoвне рoста челoвека скoрoсть ветра ниже в 1.5-2 раза). Если метеoстанция нахoдится в гoрoде или в лесу, тo скoрoсть ветра занижена на 2-4 м/с пo сравнению с oткрытым местoм. Скoрoсть ветра над акватoриями крупных рек и oзёр, а также на вершинах хoлмoв на 2-5 м/с выше, чем в oбычных услoвиях.
Атмoсфернoе давление в разных тoчках местнoсти мoжет значительнo oтличаться oт давления на метеoстанции, в зависимoсти oт услoвий рельефа (при пoдъёме на 10 м давление пoнижается примернo на 1 мм рт.ст.).